Regional Weather Roundup
Issued by NWS Upton, NY

Current Version | Previous Version | Text Only | Print | Product List | Glossary On
Versions: 1 2 3 4 5 6 7 8 9 10 11 12 13 14 15 16 17 18 19 20 21 22 23 24 25 26 27
000
ASUS41 KOKX 270108
RWROKX

REGIONAL WEATHER ROUNDUP
NATIONAL WEATHER SERVICE NEW YORK NY
800 PM EST SUN FEB 26 2017

NOTE: "FAIR" INDICATES FEW OR NO CLOUDS BELOW 12,000 FEET WITH NO
SIGNIFICANT WEATHER AND/OR OBSTRUCTIONS TO VISIBILITY.

NYZ071-072-176-178-NJZ106-104-270200-
NEW YORK CITY METRO AREA

CITY           SKY/WX    TMP DP  RH WIND       PRES   REMARKS
Central Park   PTCLDY    38  16  40 W12G18    30.21R WCI  30
Wall St Helipt NOT AVBL
LaGuardia APRT PTCLDY    41  16  36 W16G24    30.19R
Kennedy INTL   PTCLDY    39  18  42 W15       30.21R WCI  31
Breezy Point     N/A     37 N/A N/A NW13G21     N/A  WCI  29
Newark/Liberty PTCLDY    38  16  40 W13       30.20R WCI  30
Teterboro      PTCLDY    39  17  41 W6        30.19R WCI  35
$$

NYZ177-179-078>081-270200-
LONG ISLAND NEW YORK

CITY           SKY/WX    TMP DP  RH WIND       PRES   REMARKS
Jones Beach      N/A     39 N/A N/A W17         N/A  WCI  30
Matinecock PT    N/A     37 N/A N/A NW15        N/A  WCI  28
Farmingdale    PTCLDY    37  17  44 NW6       30.19R WCI  32
MacArthur/ISP  PTCLDY    36  18  48 NW10      30.18R WCI  28
Shirley        CLEAR     35  18  49 NW9       30.19R WCI  28
Westhampton    CLEAR     35  16  45 NW10      30.19R WCI  27
Southampton    NOT AVBL
Bridgehampton  NOT AVBL
East Hampton     N/A     36  17  46 W7G17     30.16R WCI  30
Montauk          N/A     38  20  48 NW13      30.16R WCI  30
$$

NYZ052-065-067-270200-
HUDSON VALLEY

CITY           SKY/WX    TMP DP  RH WIND       PRES   REMARKS
White Plains   CLEAR     35  16  45 W10       30.16R WCI  27
Newburgh       MOCLDY    36  19  51 W8        30.18R WCI  29
Montgomery     CLEAR     32  20  61 SW5       30.17R WCI  27
Poughkeepsie   CLEAR     33  17  51 W7        30.17R WCI  27
Albany         PTCLDY    29  19  66 SW3       30.15R
$$

NJZ001-105-106-008-010-013-015-019>022-104-270200-
NEW JERSEY

CITY           SKY/WX    TMP DP  RH WIND       PRES   REMARKS
Newark/Liberty PTCLDY    38  16  40 W13       30.20R WCI  30
Teterboro      PTCLDY    39  17  41 W6        30.19R WCI  35
Caldwell       PTCLDY    37  17  44 W7        30.21R WCI  32
Somerville     CLEAR     34  15  46 NW3       30.20R
Linden         NOT AVBL
Sussex         CLEAR     32  16  51 CALM      30.18R
Andover          N/A     33  16  49 VRB5      30.18R WCI  29
Trenton        CLEAR     36  18  48 CALM      30.21R
Millville      CLEAR     28  23  81 CALM      30.25R
Atlantic City  CLEAR     37  17  44 W5        30.24R WCI  33
Wrightstown    CLEAR     36  18  46 W9        30.20R WCI  29
Toms River     CLEAR     32  20  61 W3        30.24R
Belmar         CLEAR     35  18  49 W6        30.23R WCI  30
$$

PAZ047>061-062-071-270200-
EASTERN PENNSYLVANIA

CITY           SKY/WX    TMP DP  RH WIND       PRES   REMARKS
Philadelphia   PTCLDY    40  16  37 NW10      30.25R WCI  33
Allentown      CLEAR     32  15  49 W5        30.21R WCI  27
Scranton       CLEAR     32  16  51 SW7       30.15R WCI  26
$$

CTZ002-004>006-009-010-012-RIZ004-006-007-MAZ004-011-015-270200-
SOUTHERN NEW ENGLAND
 IN CT

CITY           SKY/WX    TMP DP  RH WIND       PRES   REMARKS
Bradley INTL   PTCLDY    32  16  51 W7        30.14R WCI  26
Hartford       CLEAR     34  17  50 NW5       30.16R WCI  30
Danbury        CLEAR     33  14  45 W3        30.17R
Wtrbury/Oxford PTCLDY    34  12  40 W5        30.15R WCI  30
Bridgeport     CLEAR     37  15  40 W12       30.18R WCI  29
Meriden        CLEAR     35  18  49 CALM      30.16R
New Haven      CLEAR     36  17  46 W6        30.17R WCI  31
Chester          N/A     34  16  47 NW3       30.14R
Groton         CLEAR     35  17  47 NW15      30.15R WCI  25
Wilimantic     CLEAR     35  17  47 NW6       30.14R WCI  30

 IN RI

CITY           SKY/WX    TMP DP  RH WIND       PRES   REMARKS
Providence     CLEAR     34  14  43 NW7       30.13R WCI  28
Block Island   PTCLDY    36  18  48 NW14G20   30.15R WCI  27
Westerly       CLEAR     36  14  40 W8        30.15R WCI  30
 IN MA

CITY           SKY/WX    TMP DP  RH WIND       PRES   REMARKS
Boston         PTCLDY    35  15  44 W18       30.10R WCI  24
Worcester      CLEAR     30  11  45 W15G26    30.05R WCI  19
Westfield      CLEAR     32  18  56 W7        30.13R WCI  26
Provincetown   CLEAR     37  20  50 W22G29    30.08R WCI  26
Nantucket      CLEAR     37  16  42 W18       30.09R WCI  27
$$

ANZ330-335-338-340-345-350-353-355-270200-
COASTAL MARINE OBSERVATIONS


STATION/POSITION TIME  SKY/WX   TEMP    WIND        PRES    VSBY  WAVE
                                AIR SEA DIR/SP/G                  HT/PER
                 (UTC)          (F)     (DEG/KT/KT) (MB)    (MI)  (FT/S)
NY HARB ENTRANCE 2350            40 43  280/ 21/ 25 1020.9          4/ 9
20 S FIRE ISLAND 2350            40 43  290/ 23/ 29 1020.3          5/ 5
GREAT SOUTH BAY  NOT AVBL
23 SSW MONTAUK P 2350            40 44              1019.8          5/10
15 E BARNEGAT LI 0030               44                N/A           4/10
HUDSON CANYON    2350               47              1020.9          6/ 6
KINGS POINT      0030            39 41              1022.0
EXECUTION ROCKS  NOT AVBL
CENTRAL LI SOUND 2353            39     290/ 19/ 23   N/A           3/ 5
EASTERN LI SOUND NOT AVBL
ROBBINS REEF     0030            38     290/ 17/ 20 1022.6
$$


>>>>>>>>>>>>>>>>>>>>>>>>>>>> KEY <<<<<<<<<<<<<<<<<<<<<<<<<<<
>                                                          <
>     SKY/WX - Sky Condition/Present Weather               <
>     TMP    - Temperature in Fahrenheit                   <
>     DP     - Dew Point in Fahrenheit                     <
>     RH     - Relative Humidity in Percent                <
>     WIND   - Direction (from) and Speed in MPH           <
>     PRES   - Mean Sea Level Pressure (inches of Hg)      <
>     WCI    - Wind Chill Index                            <
>     VSB    - VISIBILITY IN MILES                         <
>     HX     - HEAT INDEX                                  <
>     TC     - TEMPERATURE IN CELSIUS                      <
>     VRB    - VARIABLE WIND DIRECTION                     <
>                                                          <
>>>>>>>>>>>>>>>>>>>>>>>>>>>> KEY <<<<<<<<<<<<<<<<<<<<<<<<<<<




USA.gov is the U.S. government's official web portal to all federal, state and local government web resources and services.